Regional Weather Roundup
Issued by NWS

Home | Current Version | Previous Version | Text Only | Print | Product List | Glossary Off
Versions: 1 2 3 4 5 6 7 8 9 10 11 12 13 14 15 16 17 18 19 20 21 22 23 24 25 26 27 28 29 30 31 32 33 34 35 36 37 38 39 40 41 42 43 44 45 46 47 48 49 50

000
ASUS43 KLOT 261508
RWRIL

ILLINOIS REGIONAL WEATHER ROUNDUP
NATIONAL WEATHER SERVICE CHICAGO/ROMEOVILLE IL
1000 AM CDT TUE MAY 26 2015

NOTE: "FAIR" INDICATES FEW OR NO CLOUDS BELOW 12,000 FEET WITH NO
SIGNIFICANT WEATHER AND/OR OBSTRUCTIONS TO VISIBILITY.

* THESE STATIONS ARE NOT UNDER NWS QUALITY CONTROL. THEY ALSO MAY NOT
  REPORT WEATHER SUCH AS PRECIPITATION OR FOG.

ILZ001-002-007-009-015-016-024-261600-
NORTHWEST ILLINOIS

CITY           SKY/WX    TMP DP  RH WIND       PRES   REMARKS
MOLINE         RAIN      66  63  90 S10G20    29.76S FOG
STERLING*      CLOUDY    70  66  88 SE12G17   29.78F
SAVANNA*       RAIN      70  67  89 SE13      29.76F
$$

ILZ003-004-008-010-011-017-018-261600-
NORTH CENTRAL ILLINOIS

CITY           SKY/WX    TMP DP  RH WIND       PRES   REMARKS
ROCKFORD       CLOUDY    71  64  78 SE10      29.83F
FREEPORT*      CLOUDY    69  65  89 SE16      29.82F
ROCHELLE*      LGT RAIN  69  66  90 SE18G25   29.83F
DE KALB*       CLOUDY    68  64  88 SE20G26   29.86F
PERU*          CLOUDY    71  67  87 SE15      29.80F
$$

ILZ005-006-012>014-019>023-261600-
NORTHEAST ILLINOIS

CITY           SKY/WX    TMP DP  RH WIND       PRES   REMARKS
CHICAGO-OHARE  CLOUDY    71  65  81 S10       29.88F
CHICAGO-MIDWAY CLOUDY    74  66  76 SE8       29.88F
AURORA         CLOUDY    72  65  78 SE15      29.86F
LANSING*       CLOUDY    72  63  75 S15G21    29.91F
JOLIET*        CLOUDY    73  67  82 S10G16    29.87F
WAUKEGAN       CLOUDY    64  61  90 SE12      29.89F
DUPAGE AIRPORT CLOUDY    71  65  81 S16G22    29.86F
KANKAKEE*      CLOUDY    71  66  84 SE14G22   29.89F
WHEELING       CLOUDY    71  64  78 SE12      29.90F
MORRIS*        LGT RAIN  71  66  83 S15G23    29.85F
ROMEOVILLE*    CLOUDY    71  66  82 SE12G17   29.87F
NORTHERLY ISL    N/A     71  63  75 S10         N/A
$$

LMZ740>746-261600-
SOUTHERN LAKE MICHIGAN

STATION/POSITION SKY/WX   TEMP    WIND        PRES    VSBY  WAVE
                          AIR SEA DIR/SP/G                  HT/PER
                          (F)     (DEG/KT/KT) (MB)    (MI)  (FT/S)
SOUTHERN BUOY              47 38  150/ 12/ 14 1014.0F         1/ 3
HARRISON CRIB              64     130/ 16/ 17   N/A
BURNHAM HARBOR             70     120/  7/ 14   N/A
CALUMET HARBOR             72     160/  9/ 16   N/A
BURNS HARBOR               72     180/ 10/ 23 1013.9F
MICHIGAN CITY              70     140/ 13/ 17   N/A
MICHIGAN CITY 6N           65 52  180/ 10/ 14   N/A           1/ 2
ST. JOSEPH                 64 55  200/ 12/ 14   N/A           1/ 2
$$

ILZ025>027-034>036-040-047-049-050-058-095>099-261600-
WEST-CENTRAL ILLINOIS

CITY           SKY/WX    TMP DP  RH WIND       PRES   REMARKS
QUINCY         CLOUDY    69  63  81 SW24      29.80R
GALESBURG*     LGT RAIN  65  64  94 S9        29.79R
MACOMB*        CLOUDY    66  64  94 S9        29.81F
JACKSONVILLE*  PTSUNNY   73  66  80 S14G20    29.82F
PITTSFIELD*    MOSUNNY   72  63  74 SW15G25   29.83S
$$

ILZ028>032-037-038-041>044-048-051>054-059>061-261600-
CENTRAL ILLINOIS

CITY           SKY/WX    TMP DP  RH WIND       PRES   REMARKS
PONTIAC        CLOUDY    73  68  87 SE20      29.85F
BLOOMINGTON    CLOUDY    71  68  90 S18G28    29.85F
DECATUR        CLOUDY    72  67  84 S17G24    29.86F
PEORIA         RAIN      67  64  90 S15G30    29.83R VSB 1
LACON*         RAIN      70  66  88 SE16G26   29.78F
LINCOLN*       LGT RAIN  72  67  87 S16G29    29.81S
SPRINGFIELD    CLOUDY    69  62  78 SW14G22   29.84F
TAYLORVILLE    LGT RAIN  68  66  94 S21G26    29.86R
$$

ILZ033-039-045-046-055>057-062-063-261600-
EAST-CENTRAL ILLINOIS

CITY           SKY/WX    TMP DP  RH WIND       PRES   REMARKS
CHAMPAIGN      CLOUDY    74  65  73 S25G32    29.89F
DANVILLE*      CLOUDY    72  65  80 SE16G22   29.89F
RANTOUL*       CLOUDY    75  67  76 S22G31    29.89F
MATTOON        LGT RAIN  70  66  87 S16G24    29.91R
PARIS*         CLOUDY    74  67  79 SE18G24   29.92F
$$

ILZ079-100>102-261600-
SOUTHWEST ILLINOIS

CITY           SKY/WX    TMP DP  RH WIND       PRES   REMARKS
ALTON          PTSUNNY   72  72 100 SW17      29.88S
BELLEVILLE     MOSUNNY   73  67  83 S16G24    29.88R
CAHOKIA*       MOSUNNY   74  62  66 SW13G24   29.87F
SPARTA*        PTSUNNY   71  68  90 SW12      29.93S
$$

ILZ064>066-069>071-074>076-080>082-084>086-088>090-092>094-261600-
SOUTH-CENTRAL ILLINOIS

CITY           SKY/WX    TMP DP  RH WIND       PRES   REMARKS
CARBONDALE     PTSUNNY   73  65  75 SW17G25   29.94R
CAIRO*         CLOUDY    71  64  78 SW20G28   30.00R
EFFINGHAM*     DRIZZLE   70  65  86 SE10G17   29.93F
MT. VERNON     CLOUDY    75  64  69 S22       29.94S
CENTRALIA*     PTSUNNY   75  65  71 S18       29.91S
SALEM*         CLOUDY    75  67  75 S16G25    29.91F
METROPOLIS*    CLOUDY    73  67  81 S15G24    30.00R
$$

ILZ067-068-072-073-078-083-087-091-261600-
SOUTHEAST ILLINOIS

CITY           SKY/WX    TMP DP  RH WIND       PRES   REMARKS
LAWRENCEVILLE  CLOUDY    76  66  71 S20G25    29.96S
FLORA*         CLOUDY    72  66  81 S17G25    29.93F
FAIRFIELD*     CLOUDY    73  67  79 S15G24    29.93F
HARRISBURG*    PTSUNNY   74  67  78 S16G24    29.97S
ROBINSON*      CLOUDY    73  65  75 S14G22    29.95S
CARMI*         CLOUDY    75  63  64 S22       29.96S
$$

ABBREVIATIONS USED IN REMARKS
   TC - TEMPERATURE IN CELSIUS
  WCI - WIND CHILL INDEX
   HX - HEAT INDEX
  VSB - VISIBILITY
$$




USA.gov is the U.S. government's official web portal to all federal, state and local government web resources and services.